{"data":{"norad_id":63225,"epoch":"2026-05-25T03:52:56.813088Z","epoch_age_seconds":64366,"freshness":"FRESH","line1":"1 63225U 25052R   26145.16176867  .00003999  00000+0  17716-3 0  9996","line2":"2 63225  97.4039  38.4173 0004334 196.2880 163.8217 15.22196096 66344","mean_motion":15.22196096,"eccentricity":0.0004334,"inclination_deg":97.4039,"raan_deg":38.4173,"arg_perigee_deg":196.288,"mean_anomaly_deg":163.8217,"bstar":0.00017716,"rev_number":6634,"period_min":94.600163788621,"perigee_km":496.23729393379,"apogee_km":502.19858519541,"semimajor_km":6877.3549395646,"source":"CELESTRAK","updated_at":"2026-05-25T13:38:03.578875Z"}}